Probability
0 0 0 0 0 0 0 0 0 0 0 0 0 0 0 0 0 0 0 0 0 0 0 0 1 3 6 8 11 14 15 13 10 6 4 3 1 0 0 0 0 0 0 0
0 0 0 0 0 0 0 0 0 0 0 0 0 0 0 0 0 0 0 0 0 0 0 0 0 2 3 6 10 14 16 14 11 8 5 3 2 1 0 0 0 0 0 0
0 0 0 0 0 0 0 0 0 0 0 0 0 0 0 0 0 0 0 0 0 0 0 0 0 1 2 4 8 14 17 16 12 9 7 5 2 1 0 0 0 0 0 0
0 0 0 0 0 0 0 0 0 0 0 0 0 0 0 0 0 0 0 0 0 0 0 0 0 0 1 3 7 13 17 17 13 11 8 5 2 0 0 0 0 0 0 0
0 0 0 0 0 0 0 0 0 0 0 0 0 0 0 0 0 0 0 0 0 0 0 0 0 0 1 3 7 13 16 16 14 11 9 6 3 1 0 0 0 0 0 0
0 0 0 0 0 0 0 0 0 0 0 0 0 0 0 0 0 0 0 0 0 0 0 0 0 0 1 3 7 11 14 16 16 13 10 8 6 4 1 0 0 0 0 0
0 0 0 0 0 0 0 0 0 0 0 0 0 0 0 0 0 0 0 0 0 0 0 0 0 0 0 2 6 10 14 17 17 13 10 9 9 7 3 1 0 0 0 0
0 0 0 0 0 0 0 0 0 0 0 0 0 0 0 0 0 0 0 0 0 0 0 0 0 0 0 2 5 9 13 16 16 14 10 8 9 8 5 2 0 0 0 0
0 0 0 0 0 0 0 0 0 0 0 0 0 0 0 0 0 0 0 0 0 0 0 0 0 0 0 2 5 8 11 14 16 15 12 9 8 7 5 3 1 0 0 0
0 0 0 0 0 0 0 0 0 0 0 0 0 0 0 0 0 0 0 0 0 0 0 0 0 0 0 2 5 7 10 13 16 16 14 12 8 6 4 3 2 1 0 0
0 0 0 0 0 0 0 0 0 0 0 0 0 0 0 0 0 0 0 0 0 0 0 0 0 0 0 1 4 6 8 11 14 16 16 14 10 7 5 3 2 1 0 0
0 0 0 0 0 0 0 0 0 0 0 0 0 0 0 0 0 0 0 0 0 0 0 0 0 0 0 0 2 3 5 8 11 14 15 14 11 9 6 3 1 0 0 0
0 0 0 0 0 0 0 0 0 0 0 0 0 0 0 0 0 0 0 0 0 0 0 0 0 0 0 0 0 1 3 5 7 11 13 13 11 9 7 5 3 1 0 0
0 0 0 0 0 0 0 0 0 0 0 0 0 0 0 0 0 0 0 0 0 0 0 0 0 0 0 0 0 0 1 2 4 7 8 9 9 8 7 6 4 2 1 1
0 0 0 0 0 0 0 0 0 0 0 0 0 0 0 0 0 0 0 0 0 0 0 0 0 0 0 0 0 0 0 0 1 3 4 5 6 6 6 5 4 3 3 2
0 0 0 0 0 0 0 0 0 0 0 0 0 0 0 0 0 0 0 0 0 0 0 0 0 0 0 0 0 0 0 0 0 1 1 2 3 3 3 3 3 3 3 3
0 0 0 0 0 0 0 0 0 0 0 0 0 0 0 0 0 0 0 0 0 0 0 0 0 0 0 0 0 0 0 0 0 0 0 1 1 1 1 1 1 1 2 2
0 0 0 0 0 0 0 0 0 0 0 0 0 0 0 0 0 0 0 0 0 0 0 0 0 0 0 0 0 0 0 0 0 0 0 0 0 0 0 0 0 0 1 1
0 0 0 0 0 0 0 0 0 0 0 0 0 0 0 0 0 0 0 0 0 0 0 0 0 0 0 0 0 0 0 0 0 0 0 0 0 0 0 0 0 0 0 0
0 0 0 0 0 0 0 0 0 0 0 0 0 0 0 0 0 0 0 0 0 0 0 0 0 0 0 0 0 0 0 0 0 0 0 0 0 0 0 0 0 0 0 0
0 0 0 0 0 0 0 0 0 0 0 0 0 0 0 0 0 0 0 0 0 0 0 0 0 0 0 0 0 0 0 0 0 0 0 0 0 0 0 0 0 0 0 0
0 0 0 0 0 0 0 0 0 0 0 0 0 0 0 0 0 0 0 0 0 0 0 0 0 0 0 0 0 0 0 0 0 0 0 0 0 0 0 0 0 0 0 0
0 0 0 0 0 0 0 0 0 0 0 0 0 0 0 0 0 0 0 0 0 0 0 0 0 0 0 0 0 0 0 0 0 0 0 0 0 0 0 0 0 0 0 0
0 0 0 0 0 0 0 0 0 0 0 0 0 0 0 0 0 0 0 0 0 0 0 0 0 0 0 0 0 0 0 0 0 0 0 0 0 0 0 0 0 0 0 0
0 0 0 0 0 0 0 0 0 0 0 0 0 0 0 0 0 0 0 0 0 0 0 0 0 0 0 0 0 0 0 0 0 0 0 0 0 0 0 0 0 0 0 0
0 0 0 0 0 0 0 0 0 0 0 0 0 0 0 0 0 0 0 0 0 0 0 0 0 0 0 0 0 0 0 0 0 0 0 0 0 0 0 0 0 0 0 0
Wind_Speed
3 5 9 11 13 13 11 12 13 12 7 10 16 18 15 12 11 12 12 12 12 14 14 14 16 16 17 17 19 20 19 19 16 13 13 13 12 11 9 9 11 12 12 12
4 11 13 11 11 13 14 15 15 12 10 10 13 18 14 14 15 12 12 13 13 12 11 13 15 16 18 20 21 22 21 21 20 15 13 10 9 7 7 7 10 12 13 13
10 9 7 10 12 13 14 13 12 11 9 9 9 13 15 13 14 14 13 12 12 15 15 14 15 17 18 20 22 21 23 21 21 16 10 8 6 5 6 9 10 11 13 13
9 9 10 10 11 11 12 9 11 12 9 6 7 8 9 11 13 16 16 14 13 14 15 14 15 16 19 20 21 22 23 22 21 18 16 18 14 13 12 11 10 10 12 13
7 5 6 10 11 10 9 7 9 10 8 8 7 8 7 7 13 16 16 16 14 13 13 14 14 16 17 19 19 20 22 22 21 20 20 19 14 11 7 7 10 10 10 12
10 7 6 8 9 9 7 5 7 7 5 10 11 10 7 7 14 14 15 15 14 12 12 12 12 13 15 16 17 19 21 22 21 22 21 21 19 14 12 12 13 11 9 10
8 5 4 5 6 5 5 3 3 4 6 8 8 10 10 9 9 11 13 13 12 11 10 9 11 12 14 16 17 18 21 21 21 22 21 22 21 18 18 16 15 13 10 11
5 7 4 3 4 4 5 7 6 4 5 3 7 10 8 8 8 7 8 8 9 10 10 10 10 12 14 16 18 19 21 20 21 22 21 20 19 15 13 14 13 14 12 12
4 7 6 7 6 5 4 6 5 3 3 3 5 5 5 3 4 5 6 5 7 9 10 10 9 11 13 15 17 19 20 20 21 21 20 19 19 17 15 15 13 11 10 8
3 8 8 6 3 3 4 3 3 5 4 4 5 4 2 3 4 5 5 6 7 6 6 7 7 9 11 13 14 16 18 20 19 21 19 16 18 18 15 13 15 14 12 10
2 4 7 5 3 3 2 2 3 3 3 3 3 3 1 2 2 4 6 6 5 5 5 5 5 6 7 9 12 13 15 16 18 19 18 17 17 17 15 14 16 15 12 13
2 2 5 6 5 3 2 2 2 2 4 4 2 4 2 3 5 5 6 7 6 4 3 2 1 1 4 6 8 11 12 13 15 17 17 17 16 15 16 16 15 14 14 14
1 0 4 7 4 4 2 2 3 4 3 3 4 5 4 7 9 9 9 9 8 6 4 3 2 1 2 3 5 7 9 11 12 13 15 15 15 15 16 16 14 14 14 13
2 2 4 5 6 6 7 8 6 3 4 5 6 7 8 11 11 11 10 9 8 7 5 4 3 2 1 1 3 4 5 7 9 11 13 15 15 15 15 14 13 13 14 14
1 3 5 9 10 8 9 9 7 7 7 6 7 6 8 8 8 9 9 9 9 9 8 6 4 3 3 1 1 3 4 5 6 9 10 12 12 12 12 12 12 12 12 13
1 3 4 7 8 7 9 9 8 8 7 8 8 8 6 6 5 7 8 9 10 10 9 8 6 4 3 2 1 1 2 4 5 7 8 8 8 10 11 11 11 11 11 11
2 2 2 6 7 6 5 6 6 5 4 5 7 7 6 6 6 6 7 8 8 9 10 8 7 5 3 3 2 2 2 2 4 5 6 7 8 9 10 10 11 11 11 11
6 3 3 4 4 5 5 3 4 4 3 3 3 5 6 6 6 4 4 7 8 9 10 9 7 7 5 3 2 1 1 3 3 4 5 5 7 8 8 9 10 10 10 10
8 6 3 2 4 7 5 4 3 4 3 3 4 6 7 8 4 3 6 7 8 8 8 8 7 6 4 3 2 1 1 1 2 2 4 5 6 7 8 9 9 9 8 8
4 4 3 3 4 5 4 6 6 1 3 4 4 5 6 5 3 5 8 9 9 8 7 8 7 5 4 4 1 1 1 1 1 1 2 3 5 7 8 8 8 7 7 8
0 1 4 5 5 7 5 6 4 0 5 5 4 4 4 3 5 7 9 9 9 7 7 7 6 5 4 3 1 0 0 1 1 0 1 2 4 6 7 7 6 7 7 7
4 3 4 3 5 7 3 2 0 5 4 4 4 4 4 5 6 7 7 9 9 8 7 7 6 6 5 3 1 1 1 1 1 1 2 2 3 4 5 7 7 7 8 8
5 7 5 7 7 5 3 4 4 4 4 4 5 5 5 6 6 7 7 8 8 8 7 6 6 7 6 4 2 1 2 1 1 2 2 2 3 4 5 7 8 7 7 7
4 3 3 5 7 6 6 5 4 4 5 5 5 5 5 6 6 7 7 8 8 7 6 6 6 6 6 5 4 2 2 1 1 2 2 2 4 4 4 5 5 6 6 7
6 3 4 7 8 6 6 5 6 6 6 6 6 6 6 6 7 7 7 8 7 7 6 5 5 5 6 5 4 2 1 0 1 1 1 2 3 4 4 4 3 4 4 6
6 7 7 9 7 6 7 6 5 6 7 6 6 7 7 6 8 7 7 7 7 7 6 6 5 5 5 4 4 3 1 1 2 1 2 2 3 3 4 5 5 7 5 6
Wind_Direction
222 211 224 226 227 243 256 264 262 260 260 246 245 249 248 248 247 236 230 225 220 220 215 205 199 193 187 184 183 182 180 177 174 177 178 179 183 181 180 181 178 179 178 176
258 241 241 246 245 252 254 257 264 271 257 250 254 256 252 239 237 236 232 228 223 226 221 208 201 194 189 187 186 185 183 180 181 183 183 182 174 173 175 176 179 181 180 179
244 255 250 248 247 247 251 248 249 258 276 264 261 259 246 239 234 234 235 231 223 221 220 213 203 197 192 190 188 187 186 184 184 179 169 156 147 148 172 186 188 186 183 182
255 257 253 250 248 242 256 245 254 255 258 249 220 258 246 229 232 231 231 230 227 223 219 213 204 199 195 193 190 189 187 186 184 178 176 175 180 186 191 188 186 183 184 184
267 272 268 257 252 243 252 260 255 251 249 264 232 247 263 224 227 227 226 227 227 226 220 214 206 200 197 193 189 190 188 188 184 182 182 183 189 191 173 170 176 183 187 188
263 258 253 253 262 250 253 262 263 250 234 247 225 226 257 218 219 221 223 224 224 222 220 217 210 201 197 192 190 188 187 188 185 185 185 188 189 181 172 178 185 188 189 191
306 282 251 249 270 263 222 196 229 214 210 235 199 210 243 238 230 224 224 224 220 219 217 213 207 199 195 191 190 188 187 188 186 188 190 193 192 186 186 187 189 189 190 197
308 301 294 284 243 254 228 198 207 214 211 239 193 215 240 242 246 245 236 229 223 221 219 214 207 201 196 191 190 189 188 189 188 190 194 196 193 191 193 190 191 195 200 201
286 284 299 298 275 226 226 219 224 265 286 252 229 242 286 298 289 268 255 243 237 227 222 219 210 203 196 192 190 190 190 189 190 191 194 195 194 194 194 191 192 196 198 191
247 282 293 300 304 251 235 226 193 204 218 238 245 232 252 290 280 289 281 259 252 250 237 227 213 206 199 193 191 190 191 191 190 192 194 195 196 198 195 189 194 197 195 187
245 271 299 322 299 284 285 238 235 216 224 214 238 250 257 259 320 322 309 300 276 263 249 239 222 205 199 191 188 188 191 191 191 192 194 195 196 197 193 194 197 198 193 190
258 250 281 277 273 286 238 239 228 227 250 239 243 262 352 6 12 6 351 346 332 318 295 276 253 188 187 189 188 188 190 190 192 192 192 195 195 193 194 197 197 194 193 194
285 319 322 328 331 353 352 312 287 268 257 238 229 250 356 4 3 4 355 351 342 343 352 355 21 66 181 185 186 188 190 191 190 189 191 193 193 193 196 198 196 192 192 192
314 206 205 240 266 287 295 295 288 262 246 255 247 276 317 342 347 349 349 344 344 356 5 12 8 359 308 189 183 181 191 190 185 185 189 194 194 195 196 195 192 192 191 191
50 248 244 258 266 267 273 281 276 252 245 246 268 277 299 322 331 336 341 345 355 360 2 2 2 354 349 335 209 187 187 183 181 183 189 194 193 191 191 191 191 189 190 192
273 251 271 277 268 270 275 280 271 258 253 254 269 275 301 318 330 340 346 351 355 353 351 351 351 355 344 321 284 222 197 187 177 183 189 187 183 185 187 188 186 185 186 186
233 214 264 274 294 296 266 274 268 248 249 243 255 274 309 320 329 331 337 345 349 346 343 340 336 326 316 297 271 225 210 187 176 179 179 178 180 183 187 182 181 183 184 183
202 197 231 273 308 255 251 261 271 258 269 276 278 307 306 296 292 301 339 339 337 338 336 332 324 317 314 312 313 280 169 160 165 168 171 174 177 180 178 178 181 182 181 183
194 189 217 248 269 273 289 313 289 248 264 309 300 312 320 317 309 309 343 341 324 319 321 320 312 304 312 319 324 31 76 124 137 161 180 178 174 175 175 179 180 176 172 178
169 175 198 232 254 261 280 313 315 190 268 312 311 311 322 346 329 301 327 328 321 319 323 327 324 322 329 328 343 90 77 92 161 195 193 180 172 172 177 178 173 166 166 172
155 192 210 226 245 266 284 316 353 107 273 301 302 303 325 297 265 289 311 318 317 314 320 328 329 322 314 324 351 77 89 304 309 281 149 151 165 169 168 164 161 154 155 157
201 204 218 207 231 254 292 358 242 249 270 284 287 294 294 287 293 300 309 317 318 321 327 331 330 325 322 322 328 315 309 336 4 69 119 133 145 152 153 151 150 150 151 153
213 201 199 203 227 252 248 231 251 251 267 278 281 288 288 288 297 307 308 313 315 319 320 323 323 320 323 325 324 313 320 0 55 73 103 120 122 139 147 148 149 148 153 154
265 222 206 249 260 263 269 261 263 261 257 271 277 281 285 285 295 305 309 310 311 312 312 314 318 316 317 326 328 313 310 331 101 105 109 127 128 128 131 136 144 151 158 157
233 227 232 252 266 280 267 256 262 271 277 282 282 277 277 285 289 292 300 301 301 303 303 301 299 302 306 317 319 315 302 2 120 121 125 131 129 130 125 119 126 147 164 167
211 209 220 242 243 241 261 269 277 282 285 286 287 286 282 278 279 284 288 290 292 296 301 299 297 295 296 300 301 300 275 206 164 159 159 145 136 131 128 120 89 65 95 120